Location: St. Louis
(38.6270°N, 90.1994°W)
Time: 11:41:50
(UTC-06:00)

Altair - Pass Details

Date: 02 December 2021
Orbit: 1501 x 1683 km, 47.2° (Epoch: 25 January)

Event Time Altitude Azimuth Distance (km) Brightness Sun altitude
Rises 15:58:47 0° 239° (WSW) 4,788 12.9 6.0°
Reaches altitude 10° 16:01:55 10° 239° (WSW) 3,780 12.6 5.5°
Maximum altitude 16:11:30 87° 328° (NNW) 1,546 7.7 3.9°
Drops below altitude 10° 16:20:48 10° 60° (ENE) 3,670 8.8 2.4°
Sets 16:23:48 0° 61° (ENE) 4,644 9.3 1.9°
